When you browse on this site, cookies collect data to enhance your experience and personalize the content and advertising you see.
Visit our Privacy Policy to learn more. By continuing to use the site, you agree to this use of cookies and data.
  • In Schweiz
  • Länderverzeichnis
  • Für 7 Tage
  • Wassertemperatur
  • Wetterkarte
  • Widgets
  • user-avatar
    Anmelden

    Stündliche Wetter Mangush

    Heute, 22 Februar, Samstag

    Zeit Temperatur Niederschläge Wind Luftdruck Luftfeuchtigkeit
    00:00 +1°C° 0 mm 4 m/S 758 mmHg 95%
    01:00 +1°C° 0 mm 4 m/S 758 mmHg 94%
    02:00 0°C° 0 mm 4 m/S 758 mmHg 93%
    03:00 0°C° 0 mm 4 m/S 758 mmHg 93%
    04:00 0°C° 0 mm 4 m/S 758 mmHg 94%
    05:00 0°C° 0 mm 4 m/S 759 mmHg 94%
    06:00 0°C° 0.1 mm 4 m/S 759 mmHg 95%
    07:00 0°C° 0.1 mm 4 m/S 759 mmHg 95%
    08:00 0°C° 0 mm 4 m/S 760 mmHg 96%
    09:00 0°C° 0.4 mm 4 m/S 760 mmHg 96%
    10:00 0°C° 0.4 mm 4 m/S 760 mmHg 96%
    11:00 0°C° 0.4 mm 4 m/S 760 mmHg 96%
    12:00 0°C° 0.2 mm 4 m/S 760 mmHg 96%
    13:00 0°C° 0.2 mm 4 m/S 760 mmHg 96%
    14:00 0°C° 0.2 mm 4 m/S 760 mmHg 96%
    15:00 0°C° 0.2 mm 4 m/S 760 mmHg 96%
    16:00 0°C° 0.2 mm 4 m/S 760 mmHg 96%
    17:00 0°C° 0.2 mm 4 m/S 760 mmHg 96%
    18:00 0°C° 0.1 mm 4 m/S 760 mmHg 96%
    19:00 +1°C° 0.1 mm 3 m/S 761 mmHg 96%
    20:00 +1°C° 0.1 mm 3 m/S 761 mmHg 95%
    21:00 +1°C° 0 mm 3 m/S 761 mmHg 96%
    22:00 +1°C° 0 mm 3 m/S 760 mmHg 96%
    23:00 +1°C° 0 mm 3 m/S 760 mmHg 96%

    Morgen, 23 Februar, Sonntag

    Zeit Temperatur Niederschläge Wind Luftdruck Luftfeuchtigkeit
    00:00 +1°C° 0 mm 3 m/S 760 mmHg 95%
    01:00 +1°C° 0 mm 3 m/S 760 mmHg 94%
    02:00 +1°C° 0 mm 3 m/S 760 mmHg 93%
    03:00 +1°C° 0 mm 3 m/S 760 mmHg 92%
    04:00 +1°C° 0 mm 3 m/S 760 mmHg 91%
    05:00 +2°C° 0 mm 2 m/S 760 mmHg 89%
    06:00 +1°C° 0 mm 3 m/S 760 mmHg 88%
    07:00 +1°C° 0 mm 3 m/S 760 mmHg 87%
    08:00 0°C° 0 mm 4 m/S 760 mmHg 85%
    09:00 +1°C° 0 mm 5 m/S 760 mmHg 80%
    10:00 +1°C° 0 mm 5 m/S 759 mmHg 74%
    11:00 +2°C° 0 mm 6 m/S 759 mmHg 68%
    12:00 +2°C° 0 mm 7 m/S 758 mmHg 68%
    13:00 +2°C° 0 mm 8 m/S 758 mmHg 67%
    14:00 +2°C° 0 mm 8 m/S 757 mmHg 67%
    15:00 +2°C° 0 mm 8 m/S 756 mmHg 67%
    16:00 +2°C° 0 mm 8 m/S 756 mmHg 68%
    17:00 +2°C° 0 mm 8 m/S 755 mmHg 69%
    18:00 +2°C° 0 mm 8 m/S 755 mmHg 70%
    19:00 +2°C° 0 mm 9 m/S 755 mmHg 72%
    20:00 +2°C° 0 mm 9 m/S 755 mmHg 74%
    21:00 +2°C° 0 mm 9 m/S 754 mmHg 77%
    22:00 +2°C° 0 mm 10 m/S 754 mmHg 80%
    23:00 +2°C° 0 mm 10 m/S 753 mmHg 83%

    übermorgen, 24 Februar, Montag

    Zeit Temperatur Niederschläge Wind Luftdruck Luftfeuchtigkeit
    00:00 +2°C° 0 mm 9 m/S 753 mmHg 85%
    01:00 +1°C° 0 mm 9 m/S 752 mmHg 86%
    02:00 +1°C° 0 mm 8 m/S 752 mmHg 87%
    03:00 +1°C° 0 mm 8 m/S 751 mmHg 88%
    04:00 +1°C° 0 mm 9 m/S 750 mmHg 88%
    05:00 +1°C° 0 mm 9 m/S 749 mmHg 88%
    06:00 +2°C° 0 mm 10 m/S 748 mmHg 86%
    07:00 +2°C° 0 mm 11 m/S 747 mmHg 83%
    08:00 +2°C° 0 mm 11 m/S 746 mmHg 81%
    09:00 +2°C° 0.8 mm 12 m/S 745 mmHg 84%
    10:00 +1°C° 0.8 mm 13 m/S 743 mmHg 88%
    11:00 +1°C° 0.8 mm 14 m/S 742 mmHg 92%
    12:00 +1°C° 1.7 mm 14 m/S 740 mmHg 92%
    13:00 +1°C° 1.7 mm 14 m/S 739 mmHg 93%
    14:00 +3°C° 1.7 mm 14 m/S 738 mmHg 93%
    15:00 +2°C° 0.5 mm 12 m/S 737 mmHg 89%
    16:00 +1°C° 0.5 mm 10 m/S 737 mmHg 85%
    17:00 +1°C° 0.5 mm 9 m/S 736 mmHg 80%
    18:00 0°C° 0.3 mm 10 m/S 737 mmHg 85%
    19:00 -1°C° 0.3 mm 11 m/S 738 mmHg 89%
    20:00 -1°C° 0.3 mm 12 m/S 739 mmHg 93%
    21:00 -2°C° 0.8 mm 13 m/S 740 mmHg 89%
    22:00 -2°C° 0.8 mm 14 m/S 742 mmHg 85%
    23:00 -3°C° 0.8 mm 15 m/S 743 mmHg 81%

    25 Februar, Dienstag

    Zeit Temperatur Niederschläge Wind Luftdruck Luftfeuchtigkeit
    00:00 -2°C° 0 mm 14 m/S 745 mmHg 78%
    01:00 -2°C° 0 mm 12 m/S 747 mmHg 75%
    02:00 -2°C° 0 mm 11 m/S 749 mmHg 73%
    03:00 -3°C° 0 mm 11 m/S 750 mmHg 72%
    04:00 -3°C° 0 mm 10 m/S 751 mmHg 72%
    05:00 -4°C° 0 mm 9 m/S 753 mmHg 72%
    06:00 -4°C° 0 mm 9 m/S 754 mmHg 71%
    07:00 -3°C° 0 mm 9 m/S 755 mmHg 70%
    08:00 -2°C° 0 mm 8 m/S 755 mmHg 68%
    09:00 -1°C° 0 mm 8 m/S 756 mmHg 65%
    10:00 0°C° 0 mm 7 m/S 756 mmHg 62%
    11:00 +2°C° 0 mm 6 m/S 756 mmHg 58%
    12:00 +3°C° 0 mm 6 m/S 756 mmHg 56%
    13:00 +3°C° 0 mm 7 m/S 757 mmHg 55%
    14:00 +4°C° 0 mm 7 m/S 757 mmHg 53%
    15:00 +3°C° 0 mm 6 m/S 757 mmHg 57%
    16:00 +3°C° 0 mm 5 m/S 756 mmHg 62%
    17:00 +2°C° 0 mm 5 m/S 756 mmHg 66%
    18:00 +2°C° 0 mm 5 m/S 756 mmHg 70%
    19:00 +1°C° 0 mm 5 m/S 756 mmHg 74%
    20:00 +1°C° 0 mm 5 m/S 756 mmHg 78%
    21:00 +1°C° 0 mm 5 m/S 756 mmHg 80%
    22:00 +1°C° 0 mm 6 m/S 756 mmHg 82%
    23:00 +1°C° 0 mm 6 m/S 755 mmHg 84%

    26 Februar, Mittwoch

    Zeit Temperatur Niederschläge Wind Luftdruck Luftfeuchtigkeit
    00:00 +1°C° 0 mm 6 m/S 755 mmHg 85%
    01:00 +1°C° 0 mm 6 m/S 755 mmHg 85%
    02:00 -1°C° 0 mm 6 m/S 754 mmHg 86%
    03:00 0°C° 0 mm 7 m/S 754 mmHg 87%
    04:00 0°C° 0 mm 7 m/S 754 mmHg 88%
    05:00 0°C° 0 mm 7 m/S 753 mmHg 89%
    06:00 0°C° 0 mm 7 m/S 753 mmHg 87%
    07:00 +2°C° 0 mm 7 m/S 753 mmHg 85%
    08:00 +1°C° 0 mm 8 m/S 753 mmHg 84%
    09:00 +2°C° 0 mm 8 m/S 752 mmHg 78%
    10:00 +3°C° 0 mm 9 m/S 752 mmHg 72%
    11:00 +5°C° 0 mm 10 m/S 752 mmHg 67%
    12:00 +5°C° 0 mm 10 m/S 751 mmHg 66%
    13:00 +6°C° 0 mm 10 m/S 751 mmHg 65%
    14:00 +6°C° 0 mm 10 m/S 750 mmHg 64%
    15:00 +5°C° 0 mm 9 m/S 750 mmHg 67%
    16:00 +5°C° 0 mm 9 m/S 750 mmHg 70%
    17:00 +4°C° 0 mm 8 m/S 749 mmHg 73%
    18:00 +4°C° 0 mm 8 m/S 749 mmHg 74%
    19:00 +2°C° 0 mm 8 m/S 749 mmHg 74%
    20:00 +3°C° 0 mm 7 m/S 749 mmHg 75%
    21:00 +3°C° 0 mm 7 m/S 749 mmHg 75%
    22:00 +3°C° 0 mm 7 m/S 749 mmHg 76%
    23:00 +3°C° 0 mm 6 m/S 749 mmHg 76%

    27 Februar, Donnerstag

    Zeit Temperatur Niederschläge Wind Luftdruck Luftfeuchtigkeit
    00:00 +3°C° 0 mm 6 m/S 749 mmHg 78%
    01:00 +3°C° 0 mm 6 m/S 748 mmHg 79%
    02:00 +3°C° 0 mm 5 m/S 748 mmHg 81%
    03:00 +2°C° 0 mm 5 m/S 748 mmHg 83%
    04:00 +2°C° 0 mm 5 m/S 748 mmHg 85%
    05:00 +2°C° 0 mm 5 m/S 747 mmHg 88%
    06:00 +3°C° 0 mm 5 m/S 747 mmHg 84%
    07:00 +5°C° 0 mm 5 m/S 747 mmHg 81%
    08:00 +4°C° 0 mm 6 m/S 747 mmHg 77%
    09:00 +5°C° 0 mm 6 m/S 747 mmHg 73%
    10:00 +8°C° 0 mm 7 m/S 747 mmHg 68%
    11:00 +9°C° 0 mm 7 m/S 747 mmHg 64%
    12:00 +9°C° 0 mm 7 m/S 747 mmHg 64%
    13:00 +9°C° 0 mm 7 m/S 747 mmHg 65%
    14:00 +10°C° 0 mm 7 m/S 747 mmHg 65%
    15:00 +9°C° 0 mm 6 m/S 747 mmHg 69%
    16:00 +8°C° 0 mm 6 m/S 747 mmHg 72%
    17:00 +8°C° 0 mm 5 m/S 747 mmHg 76%
    18:00 +7°C° 0 mm 5 m/S 748 mmHg 80%
    19:00 +6°C° 0 mm 5 m/S 748 mmHg 83%
    20:00 +6°C° 0 mm 4 m/S 748 mmHg 87%
    21:00 +6°C° 0 mm 4 m/S 748 mmHg 89%
    22:00 +6°C° 0 mm 4 m/S 748 mmHg 90%
    23:00 +5°C° 0 mm 3 m/S 749 mmHg 92%
    Mehr zeigen